DELTA 1 DEB, 10842

Orbit data source: Space-Track

DELTA 1 DEB, 10842 is space debris in SSO originally from a launch on Thu, 29 Jul 1976 UTC launched from the Air Force Western Test Range (AFWTR). Debris objects in space refer to the collection of defunct objects orbiting the Earth. Examples of debris include non-operational satellites, rocket bodies, and fragments generated from explosions, collisions, or faulty payload assembly.

Loading next visibility...
Identifier
10842, 1976-077CN
Orbit
SSO
Country
Flag of USUS
Related business
Manufacturer
Unknown
Mission
Spacecraft
Bus & Motor
Unknown
Mass
Unknown
Launch date (UTC)
1976-07-29 (50 years ago)
Launch vehicle
Unknown
Launch site
Air Force Western Test Range (AFWTR)
Object type
Payload
Rocket body
Debris
Shape & HBR
Unknown shape, 0.1 m
Radar Cross Section
Medium (>0.1 m² and <1 m²)

Expand to show TLE details & history
Last TLE update: 1 day ago

TLE from 1 day ago
0 DELTA 1 DEB
1 10842U 76077CN  26254.95266289  .00000037  00000-0  43314-3 0  9996
2 10842 102.2181  58.1561 0287542 243.2317 242.6648 12.58989584165584
Epoch: 2026-09-11T22:51Z
TLE epoch observation values (Epoch: 2026-09-11T22:51:50.073Z)
Latitude
55.12864°
Longitude
-77.75871°
Altitude
1,544.094 km
Speed
7.05 km/s
True Right ascension
17h 04m 40s
True Declination
54° 58' 60"
Sunlit
Object was in daylight at epoch
Visualization orbit readout
Latitude
Unknown
Longitude
Unknown
Altitude
Unknown
Speed
Unknown
Apparent Right ascension
Unknown
Apparent Declination
Unknown
Sunlit
N/A
Visualization observer readout
Local Sidereal Time
17:33:50
Azimuth
Unknown
Elevation
Unknown
Doppler factor
Unknown
Orbital elements
Apogee altitude
1,649.042 km
Perigee altitude
1,200.314 km
Semi-major axis
7,802.815 km
Eccentricity
0.02875
Inclination
102.2181°
RAAN
58.1561°
Arg. of periapsis
243.2317°
True anomaly
239.78651°
Mean anomaly
242.6648°
Eccentric anomaly
241.2208°
Mean motion
3.14895 °/min
Orbital period
114.32 mins
BSTAR
0.00043314
Loading maneuver chart data...
Computing Atmospheric mass density...
Loading historical data...
Loading historical data...
Loading historical data...
Loading historical data...
Loading historical data...
Loading historical data...
Loading historical data...

Documentation

Showing up to 5 results
|